Year,Month,Day,Hour,Minute,Value (Times are PST for insolation in W/m^2)
2011,10,07,00,00,0.00
2011,10,07,00,01,0.00
2011,10,07,00,02,0.00
2011,10,07,00,03,0.00
2011,10,07,00,04,0.00
2011,10,07,00,05,0.00
2011,10,07,00,06,0.00
2011,10,07,00,07,0.00
2011,10,07,00,08,0.00
2011,10,07,00,09,0.00
2011,10,07,00,10,0.00
2011,10,07,00,11,0.00
2011,10,07,00,12,0.00
2011,10,07,00,13,0.00
2011,10,07,00,14,0.00
2011,10,07,00,15,0.00
2011,10,07,00,16,0.00
2011,10,07,00,17,0.00
2011,10,07,00,18,0.00
2011,10,07,00,19,0.00
2011,10,07,00,20,0.00
2011,10,07,00,21,0.00
2011,10,07,00,22,0.00
2011,10,07,00,23,0.00
2011,10,07,00,24,0.00
2011,10,07,00,25,0.00
2011,10,07,00,26,0.00
2011,10,07,00,27,0.00
2011,10,07,00,28,0.00
2011,10,07,00,29,0.00
2011,10,07,00,30,0.00
2011,10,07,00,31,0.00
2011,10,07,00,32,0.00
2011,10,07,00,33,0.00
2011,10,07,00,34,0.00
2011,10,07,00,35,0.00
2011,10,07,00,36,0.00
2011,10,07,00,37,0.00
2011,10,07,00,38,0.00
2011,10,07,00,39,0.00
2011,10,07,00,40,0.00
2011,10,07,00,41,0.00
2011,10,07,00,42,0.00
2011,10,07,00,43,0.00
2011,10,07,00,44,0.00
2011,10,07,00,45,0.00
2011,10,07,00,46,0.00
2011,10,07,00,47,0.00
2011,10,07,00,48,0.00
2011,10,07,00,49,0.00
2011,10,07,00,50,0.00
2011,10,07,00,51,0.00
2011,10,07,00,52,0.00
2011,10,07,00,53,0.00
2011,10,07,00,54,0.00
2011,10,07,00,55,0.00
2011,10,07,00,56,0.00
2011,10,07,00,57,0.00
2011,10,07,00,58,0.00
2011,10,07,00,59,0.00
2011,10,07,01,00,0.00
2011,10,07,01,01,0.00
2011,10,07,01,02,0.00
2011,10,07,01,03,0.00
2011,10,07,01,04,0.00
2011,10,07,01,05,0.00
2011,10,07,01,06,0.00
2011,10,07,01,07,0.00
2011,10,07,01,08,0.00
2011,10,07,01,09,0.00
2011,10,07,01,10,0.00
2011,10,07,01,11,0.00
2011,10,07,01,12,0.00
2011,10,07,01,13,0.00
2011,10,07,01,14,0.00
2011,10,07,01,15,0.00
2011,10,07,01,16,0.00
2011,10,07,01,17,0.00
2011,10,07,01,18,0.00
2011,10,07,01,19,0.00
2011,10,07,01,20,0.00
2011,10,07,01,21,0.00
2011,10,07,01,22,0.00
2011,10,07,01,23,0.00
2011,10,07,01,24,0.00
2011,10,07,01,25,0.00
2011,10,07,01,26,0.00
2011,10,07,01,27,0.00
2011,10,07,01,28,0.00
2011,10,07,01,29,0.00
2011,10,07,01,30,0.00
2011,10,07,01,31,0.00
2011,10,07,01,32,0.00
2011,10,07,01,33,0.00
2011,10,07,01,34,0.00
2011,10,07,01,35,0.00
2011,10,07,01,36,0.00
2011,10,07,01,37,0.00
2011,10,07,01,38,0.00
2011,10,07,01,39,0.00
2011,10,07,01,40,0.00
2011,10,07,01,41,0.00
2011,10,07,01,42,0.00
2011,10,07,01,43,0.00
2011,10,07,01,44,0.00
2011,10,07,01,45,0.00
2011,10,07,01,46,0.00
2011,10,07,01,47,0.00
2011,10,07,01,48,0.00
2011,10,07,01,49,0.00
2011,10,07,01,50,0.00
2011,10,07,01,51,0.00
2011,10,07,01,52,0.00
2011,10,07,01,53,0.00
2011,10,07,01,54,0.00
2011,10,07,01,55,0.00
2011,10,07,01,56,0.00
2011,10,07,01,57,0.00
2011,10,07,01,58,0.00
2011,10,07,01,59,0.00
2011,10,07,02,00,0.00
2011,10,07,02,01,0.00
2011,10,07,02,02,0.00
2011,10,07,02,03,0.00
2011,10,07,02,04,0.00
2011,10,07,02,05,0.00
2011,10,07,02,06,0.00
2011,10,07,02,07,0.00
2011,10,07,02,08,0.00
2011,10,07,02,09,0.00
2011,10,07,02,10,0.00
2011,10,07,02,11,0.00
2011,10,07,02,12,0.00
2011,10,07,02,13,0.00
2011,10,07,02,14,0.00
2011,10,07,02,15,0.00
2011,10,07,02,16,0.00
2011,10,07,02,17,0.00
2011,10,07,02,18,0.00
2011,10,07,02,19,0.00
2011,10,07,02,20,0.00
2011,10,07,02,21,0.00
2011,10,07,02,22,0.00
2011,10,07,02,23,0.00
2011,10,07,02,24,0.00
2011,10,07,02,25,0.00
2011,10,07,02,26,0.00
2011,10,07,02,27,0.00
2011,10,07,02,28,0.00
2011,10,07,02,29,0.00
2011,10,07,02,30,0.00
2011,10,07,02,31,0.00
2011,10,07,02,32,0.00
2011,10,07,02,33,0.00
2011,10,07,02,34,0.00
2011,10,07,02,35,0.00
2011,10,07,02,36,0.00
2011,10,07,02,37,0.00
2011,10,07,02,38,0.00
2011,10,07,02,39,0.00
2011,10,07,02,40,0.00
2011,10,07,02,41,0.00
2011,10,07,02,42,0.00
2011,10,07,02,43,0.00
2011,10,07,02,44,0.00
2011,10,07,02,45,0.00
2011,10,07,02,46,0.00
2011,10,07,02,47,0.00
2011,10,07,02,48,0.00
2011,10,07,02,49,0.00
2011,10,07,02,50,0.00
2011,10,07,02,51,0.00
2011,10,07,02,52,0.00
2011,10,07,02,53,0.00
2011,10,07,02,54,0.00
2011,10,07,02,55,0.00
2011,10,07,02,56,0.00
2011,10,07,02,57,0.00
2011,10,07,02,58,0.00
2011,10,07,02,59,0.00
2011,10,07,03,00,0.00
2011,10,07,03,01,0.00
2011,10,07,03,02,0.00
2011,10,07,03,03,0.00
2011,10,07,03,04,0.00
2011,10,07,03,05,0.00
2011,10,07,03,06,0.00
2011,10,07,03,07,0.00
2011,10,07,03,08,0.00
2011,10,07,03,09,0.00
2011,10,07,03,10,0.00
2011,10,07,03,11,0.00
2011,10,07,03,12,0.00
2011,10,07,03,13,0.00
2011,10,07,03,14,0.00
2011,10,07,03,15,0.00
2011,10,07,03,16,0.00
2011,10,07,03,17,0.00
2011,10,07,03,18,0.00
2011,10,07,03,19,0.00
2011,10,07,03,20,0.00
2011,10,07,03,21,0.00
2011,10,07,03,22,0.00
2011,10,07,03,23,0.00
2011,10,07,03,24,0.00
2011,10,07,03,25,0.00
2011,10,07,03,26,0.00
2011,10,07,03,27,0.00
2011,10,07,03,28,0.00
2011,10,07,03,29,0.00
2011,10,07,03,30,0.00
2011,10,07,03,31,0.00
2011,10,07,03,32,0.00
2011,10,07,03,33,0.00
2011,10,07,03,34,0.00
2011,10,07,03,35,0.00
2011,10,07,03,36,0.00
2011,10,07,03,37,0.00
2011,10,07,03,38,0.00
2011,10,07,03,39,0.00
2011,10,07,03,40,0.00
2011,10,07,03,41,0.00
2011,10,07,03,42,0.00
2011,10,07,03,43,0.00
2011,10,07,03,44,0.00
2011,10,07,03,49,0.00
2011,10,07,03,50,0.00
2011,10,07,03,51,0.00
2011,10,07,03,52,0.00
2011,10,07,03,53,0.00
2011,10,07,03,54,0.00
2011,10,07,03,55,0.00
2011,10,07,03,56,0.00
2011,10,07,03,57,0.00
2011,10,07,03,58,0.00
2011,10,07,03,59,0.00
2011,10,07,04,00,0.00
2011,10,07,04,01,0.00
2011,10,07,04,02,0.00
2011,10,07,04,03,0.00
2011,10,07,04,04,0.00
2011,10,07,04,05,0.00
2011,10,07,04,06,0.00
2011,10,07,04,07,0.00
2011,10,07,04,08,0.00
2011,10,07,04,09,0.00
2011,10,07,04,10,0.00
2011,10,07,04,11,0.00
2011,10,07,04,12,0.00
2011,10,07,04,13,0.00
2011,10,07,04,14,0.00
2011,10,07,04,15,0.00
2011,10,07,04,16,0.00
2011,10,07,04,17,0.00
2011,10,07,04,18,0.00
2011,10,07,04,19,0.00
2011,10,07,04,20,0.00
2011,10,07,04,21,0.00
2011,10,07,04,22,0.00
2011,10,07,04,23,0.00
2011,10,07,04,24,0.00
2011,10,07,04,25,0.00
2011,10,07,04,26,0.00
2011,10,07,04,27,0.00
2011,10,07,04,28,0.00
2011,10,07,04,29,0.00
2011,10,07,04,30,0.00
2011,10,07,04,31,0.00
2011,10,07,04,32,0.00
2011,10,07,04,33,0.00
2011,10,07,04,34,0.00
2011,10,07,04,35,0.00
2011,10,07,04,36,0.00
2011,10,07,04,37,0.00
2011,10,07,04,38,0.00
2011,10,07,04,39,0.00
2011,10,07,04,40,0.00
2011,10,07,04,41,0.00
2011,10,07,04,42,0.00
2011,10,07,04,43,0.00
2011,10,07,04,44,0.00
2011,10,07,04,45,0.00
2011,10,07,04,46,0.00
2011,10,07,04,47,0.00
2011,10,07,04,48,0.00
2011,10,07,04,49,0.00
2011,10,07,04,50,0.00
2011,10,07,04,51,0.00
2011,10,07,04,52,0.00
2011,10,07,04,53,0.00
2011,10,07,04,54,0.00
2011,10,07,04,55,0.00
2011,10,07,04,56,0.00
2011,10,07,04,57,0.00
2011,10,07,04,58,0.00
2011,10,07,04,59,0.00
2011,10,07,05,00,0.00
2011,10,07,05,01,0.00
2011,10,07,05,02,0.00
2011,10,07,05,03,0.00
2011,10,07,05,04,0.00
2011,10,07,05,05,0.00
2011,10,07,05,06,0.00
2011,10,07,05,07,0.00
2011,10,07,05,08,0.00
2011,10,07,05,09,0.00
2011,10,07,05,10,0.00
2011,10,07,05,11,0.00
2011,10,07,05,12,0.00
2011,10,07,05,13,0.00
2011,10,07,05,14,0.00
2011,10,07,05,15,0.00
2011,10,07,05,16,0.00
2011,10,07,05,17,0.00
2011,10,07,05,18,0.00
2011,10,07,05,19,0.00
2011,10,07,05,20,0.00
2011,10,07,05,21,0.00
2011,10,07,05,22,0.00
2011,10,07,05,23,0.00
2011,10,07,05,24,0.00
2011,10,07,05,25,0.00
2011,10,07,05,26,0.00
2011,10,07,05,27,0.00
2011,10,07,05,28,0.00
2011,10,07,05,29,0.00
2011,10,07,05,30,0.00
2011,10,07,05,31,0.00
2011,10,07,05,32,0.00
2011,10,07,05,33,0.00
2011,10,07,05,34,0.00
2011,10,07,05,35,0.00
2011,10,07,05,36,0.00
2011,10,07,05,37,0.00
2011,10,07,05,38,0.00
2011,10,07,05,39,0.00
2011,10,07,05,40,0.00
2011,10,07,05,41,0.00
2011,10,07,05,42,0.00
2011,10,07,05,43,0.00
2011,10,07,05,44,0.00
2011,10,07,05,45,0.00
2011,10,07,05,46,0.00
2011,10,07,05,47,0.00
2011,10,07,05,48,0.00
2011,10,07,05,49,0.00
2011,10,07,05,50,0.00
2011,10,07,05,51,0.00
2011,10,07,05,52,0.00
2011,10,07,05,53,0.00
2011,10,07,05,54,0.00
2011,10,07,05,55,0.00
2011,10,07,05,56,0.00
2011,10,07,05,57,0.00
2011,10,07,05,58,0.00
2011,10,07,05,59,0.00
2011,10,07,06,00,0.00
2011,10,07,06,01,0.00
2011,10,07,06,02,0.00
2011,10,07,06,03,0.00
2011,10,07,06,04,0.00
2011,10,07,06,05,0.00
2011,10,07,06,06,0.00
2011,10,07,06,07,0.00
2011,10,07,06,08,0.00
2011,10,07,06,09,0.00
2011,10,07,06,10,0.00
2011,10,07,06,11,0.00
2011,10,07,06,12,0.00
2011,10,07,06,13,0.00
2011,10,07,06,14,0.00
2011,10,07,06,15,0.00
2011,10,07,06,16,0.00
2011,10,07,06,17,0.00
2011,10,07,06,18,0.00
2011,10,07,06,19,0.00
2011,10,07,06,20,0.00
2011,10,07,06,21,0.00
2011,10,07,06,22,0.00
2011,10,07,06,23,0.00
2011,10,07,06,24,0.00
2011,10,07,06,25,0.00
2011,10,07,06,26,0.00
2011,10,07,06,27,0.00
2011,10,07,06,28,0.00
2011,10,07,06,29,0.00
2011,10,07,06,30,0.00
2011,10,07,06,31,0.00
2011,10,07,06,32,0.00
2011,10,07,06,33,0.00
2011,10,07,06,34,0.00
2011,10,07,06,35,0.00
2011,10,07,06,36,0.00
2011,10,07,06,37,0.00
2011,10,07,06,38,0.00
2011,10,07,06,39,0.00
2011,10,07,06,40,0.00
2011,10,07,06,41,0.00
2011,10,07,06,42,0.00
2011,10,07,06,43,0.00
2011,10,07,06,44,0.00
2011,10,07,06,45,0.00
2011,10,07,06,46,0.00
2011,10,07,06,47,0.00
2011,10,07,06,48,0.00
2011,10,07,06,49,0.00
2011,10,07,06,50,0.00
2011,10,07,06,51,0.00
2011,10,07,06,52,0.00
2011,10,07,06,53,0.00
2011,10,07,06,54,0.00
2011,10,07,06,55,0.00
2011,10,07,06,56,0.00
2011,10,07,06,57,0.00
2011,10,07,06,58,0.00
2011,10,07,06,59,0.00
2011,10,07,07,00,0.00
2011,10,07,07,01,0.00
2011,10,07,07,02,0.00
2011,10,07,07,03,0.00
2011,10,07,07,04,0.00
2011,10,07,07,05,0.00
2011,10,07,07,06,0.00
2011,10,07,07,07,0.00
2011,10,07,07,08,0.00
2011,10,07,07,09,0.00
2011,10,07,07,10,0.00
2011,10,07,07,11,0.00
2011,10,07,07,12,0.00
2011,10,07,07,13,0.00
2011,10,07,07,14,0.00
2011,10,07,07,15,0.00
2011,10,07,07,16,0.00
2011,10,07,07,17,0.00
2011,10,07,07,18,0.00
2011,10,07,07,19,0.00
2011,10,07,07,20,0.00
2011,10,07,07,21,0.00
2011,10,07,07,22,0.00
2011,10,07,07,23,0.00
2011,10,07,07,24,0.00
2011,10,07,07,25,0.00
2011,10,07,07,26,0.00
2011,10,07,07,27,0.00
2011,10,07,07,28,0.00
2011,10,07,07,29,1.80
2011,10,07,07,30,5.00
2011,10,07,07,31,5.00
2011,10,07,07,32,5.00
2011,10,07,07,33,5.00
2011,10,07,07,34,5.80
2011,10,07,07,35,7.00
2011,10,07,07,36,7.00
2011,10,07,07,37,7.80
2011,10,07,07,38,9.00
2011,10,07,07,39,9.00
2011,10,07,07,40,9.80
2011,10,07,07,41,11.00
2011,10,07,07,42,11.40
2011,10,07,07,43,12.00
2011,10,07,07,44,12.00
2011,10,07,07,45,12.00
2011,10,07,07,46,12.00
2011,10,07,07,47,12.80
2011,10,07,07,48,14.80
2011,10,07,07,49,16.00
2011,10,07,07,50,17.10
2011,10,07,07,51,19.70
2011,10,07,07,52,21.00
2011,10,07,07,53,21.70
2011,10,07,07,54,23.80
2011,10,07,07,55,25.00
2011,10,07,07,56,25.40
2011,10,07,07,57,26.80
2011,10,07,07,58,29.50
2011,10,07,07,59,32.30
2011,10,07,08,00,33.70
2011,10,07,08,01,35.00
2011,10,07,08,02,35.00
2011,10,07,08,03,35.00
2011,10,07,08,04,35.00
2011,10,07,08,05,35.00
2011,10,07,08,06,35.70
2011,10,07,08,07,37.00
2011,10,07,08,08,37.00
2011,10,07,08,09,37.00
2011,10,07,08,10,37.70
2011,10,07,08,11,40.00
2011,10,07,08,12,42.70
2011,10,07,08,13,44.70
2011,10,07,08,14,46.30
2011,10,07,08,15,46.70
2011,10,07,08,16,45.30
2011,10,07,08,17,43.30
2011,10,07,08,18,41.30
2011,10,07,08,19,39.70
2011,10,07,08,20,38.30
2011,10,07,08,21,37.00
2011,10,07,08,22,37.00
2011,10,07,08,23,37.70
2011,10,07,08,24,39.40
2011,10,07,08,25,40.80
2011,10,07,08,26,42.00
2011,10,07,08,27,42.00
2011,10,07,08,28,42.00
2011,10,07,08,29,42.00
2011,10,07,08,30,42.70
2011,10,07,08,31,44.00
2011,10,07,08,32,43.30
2011,10,07,08,33,42.80
2011,10,07,08,34,44.80
2011,10,07,08,35,46.00
2011,10,07,08,36,46.40
2011,10,07,08,37,47.00
2011,10,07,08,38,46.60
2011,10,07,08,39,46.00
2011,10,07,08,40,46.40
2011,10,07,08,41,47.00
2011,10,07,08,42,47.80
2011,10,07,08,43,49.00
2011,10,07,08,44,49.00
2011,10,07,08,45,49.00
2011,10,07,08,46,49.00
2011,10,07,08,47,49.00
2011,10,07,08,48,49.00
2011,10,07,08,49,49.00
2011,10,07,08,50,49.00
2011,10,07,08,51,48.20
2011,10,07,08,52,47.00
2011,10,07,08,53,47.00
2011,10,07,08,54,47.70
2011,10,07,08,55,49.70
2011,10,07,08,56,52.20
2011,10,07,08,57,54.80
2011,10,07,08,58,57.60
2011,10,07,08,59,61.10
2011,10,07,09,00,63.00
2011,10,07,09,01,65.60
2011,10,07,09,02,72.10
2011,10,07,09,03,78.40
2011,10,07,09,04,83.00
2011,10,07,09,05,88.20
2011,10,07,09,06,99.40
2011,10,07,09,07,106.00
2011,10,07,09,08,109.70
2011,10,07,09,09,111.00
2011,10,07,09,10,111.00
2011,10,07,09,11,110.30
2011,10,07,09,12,109.00
2011,10,07,09,13,109.80
2011,10,07,09,14,111.00
2011,10,07,09,15,111.70
2011,10,07,09,16,113.30
2011,10,07,09,17,115.60
2011,10,07,09,18,119.80
2011,10,07,09,19,123.00
2011,10,07,09,20,125.00
2011,10,07,09,21,128.00
2011,10,07,09,22,128.80
2011,10,07,09,23,130.70
2011,10,07,09,24,132.00
2011,10,07,09,25,132.70
2011,10,07,09,26,134.00
2011,10,07,09,27,134.40
2011,10,07,09,28,135.80
2011,10,07,09,29,137.70
2011,10,07,09,30,137.60
2011,10,07,09,31,134.60
2011,10,07,09,32,133.30
2011,10,07,09,33,132.00
2011,10,07,09,34,132.80
2011,10,07,09,35,134.40
2011,10,07,09,36,135.80
2011,10,07,09,37,136.30
2011,10,07,09,38,135.00
2011,10,07,09,39,135.80
2011,10,07,09,40,138.50
2011,10,07,09,41,142.10
2011,10,07,09,42,144.70
2011,10,07,09,43,147.10
2011,10,07,09,44,149.80
2011,10,07,09,45,151.80
2011,10,07,09,46,153.70
2011,10,07,09,47,156.80
2011,10,07,09,48,160.00
2011,10,07,09,49,163.10
2011,10,07,09,50,170.10
2011,10,07,09,51,172.00
2011,10,07,09,52,175.10
2011,10,07,09,53,183.70
2011,10,07,09,54,189.50
2011,10,07,09,55,193.90
2011,10,07,09,56,198.80
2011,10,07,09,57,205.40
2011,10,07,09,58,210.30
2011,10,07,09,59,209.00
2011,10,07,10,00,209.00
2011,10,07,10,01,211.70
2011,10,07,10,02,217.80
2011,10,07,10,03,222.40
2011,10,07,10,04,223.10
2011,10,07,10,05,218.50
2011,10,07,10,06,214.90
2011,10,07,10,07,211.60
2011,10,07,10,08,207.90
2011,10,07,10,09,204.60
2011,10,07,10,10,202.00
2011,10,07,10,11,202.80
2011,10,07,10,12,205.80
2011,10,07,10,13,209.70
2011,10,07,10,14,211.70
2011,10,07,10,15,213.00
2011,10,07,10,16,215.70
2011,10,07,10,17,220.40
2011,10,07,10,18,222.40
2011,10,07,10,19,226.80
2011,10,07,10,20,232.10
2011,10,07,10,21,237.10
2011,10,07,10,22,240.50
2011,10,07,10,23,244.10
2011,10,07,10,24,247.40
2011,10,07,10,25,251.10
2011,10,07,10,26,254.80
2011,10,07,10,27,259.40
2011,10,07,10,28,262.00
2011,10,07,10,29,263.80
2011,10,07,10,30,268.60
2011,10,07,10,31,269.50
2011,10,07,10,32,267.00
2011,10,07,10,33,269.50
2011,10,07,10,34,277.90
2011,10,07,10,35,288.70
2011,10,07,10,36,295.00
2011,10,07,10,37,295.00
2011,10,07,10,38,297.10
2011,10,07,10,39,299.60
2011,10,07,10,40,297.00
2011,10,07,10,41,296.00
2011,10,07,10,42,294.00
2011,10,07,10,43,293.30
2011,10,07,10,44,288.10
2011,10,07,10,45,277.60
2011,10,07,10,46,269.40
2011,10,07,10,47,262.50
2011,10,07,10,48,255.60
2011,10,07,10,49,249.90
2011,10,07,10,50,247.30
2011,10,07,10,51,246.00
2011,10,07,10,52,246.70
2011,10,07,10,53,248.70
2011,10,07,10,54,249.30
2011,10,07,10,55,248.00
2011,10,07,10,56,248.70
2011,10,07,10,57,252.40
2011,10,07,10,58,262.20
2011,10,07,10,59,275.90
2011,10,07,11,00,284.80
2011,10,07,11,01,289.40
2011,10,07,11,02,292.00
2011,10,07,11,03,292.70
2011,10,07,11,04,296.80
2011,10,07,11,05,303.40
2011,10,07,11,06,302.10
2011,10,07,11,07,292.50
2011,10,07,11,08,284.50
2011,10,07,11,09,275.50
2011,10,07,11,10,267.10
2011,10,07,11,11,257.50
2011,10,07,11,12,247.10
2011,10,07,11,13,237.80
2011,10,07,11,14,245.20
2011,10,07,11,15,253.70
2011,10,07,11,16,255.00
2011,10,07,11,17,255.00
2011,10,07,11,18,255.70
2011,10,07,11,19,257.40
2011,10,07,11,20,257.60
2011,10,07,11,21,257.40
2011,10,07,11,22,259.60
2011,10,07,11,23,262.70
2011,10,07,11,24,261.90
2011,10,07,11,25,258.70
2011,10,07,11,26,261.80
2011,10,07,11,27,265.00
2011,10,07,11,28,265.70
2011,10,07,11,29,267.70
2011,10,07,11,30,269.70
2011,10,07,11,31,269.60
2011,10,07,11,32,268.40
2011,10,07,11,33,271.00
2011,10,07,11,34,275.20
2011,10,07,11,35,284.80
2011,10,07,11,36,290.50
2011,10,07,11,37,298.90
2011,10,07,11,38,310.20
2011,10,07,11,39,321.90
2011,10,07,11,40,346.10
2011,10,07,11,41,378.00
2011,10,07,11,42,440.90
2011,10,07,11,43,512.80
2011,10,07,11,44,458.50
2011,10,07,11,45,436.10
2011,10,07,11,46,403.00
2011,10,07,11,47,358.50
2011,10,07,11,48,279.10
2011,10,07,11,49,293.00
2011,10,07,11,50,310.80
2011,10,07,11,51,316.00
2011,10,07,11,52,315.60
2011,10,07,11,53,316.80
2011,10,07,11,54,324.20
2011,10,07,11,55,337.60
2011,10,07,11,56,343.10
2011,10,07,11,57,334.00
2011,10,07,11,58,337.10
2011,10,07,11,59,344.80
2011,10,07,12,00,348.00
2011,10,07,12,01,350.50
2011,10,07,12,02,356.80
2011,10,07,12,03,350.20
2011,10,07,12,04,330.20
2011,10,07,12,05,328.80
2011,10,07,12,06,330.20
2011,10,07,12,07,323.90
2011,10,07,12,08,318.00
2011,10,07,12,09,320.50
2011,10,07,12,10,329.50
2011,10,07,12,11,339.00
2011,10,07,12,12,347.30
2011,10,07,12,13,366.70
2011,10,07,12,14,409.00
2011,10,07,12,15,461.00
2011,10,07,12,16,461.00
2011,10,07,12,17,461.00
2011,10,07,12,18,461.00
2011,10,07,12,19,413.40
2011,10,07,12,20,321.90
2011,10,07,12,21,316.00
2011,10,07,12,22,316.00
2011,10,07,12,23,316.00
2011,10,07,12,24,316.00
2011,10,07,12,25,457.80
2011,10,07,12,26,721.00
2011,10,07,12,27,709.10
2011,10,07,12,28,687.00
2011,10,07,12,29,687.00
2011,10,07,12,30,687.00
2011,10,07,12,31,532.70
2011,10,07,12,32,244.90
2011,10,07,12,33,244.80
2011,10,07,12,34,236.80
2011,10,07,12,35,216.00
2011,10,07,12,36,216.00
2011,10,07,12,37,266.00
2011,10,07,12,38,327.50
2011,10,07,12,39,284.40
2011,10,07,12,40,326.60
2011,10,07,12,41,337.60
2011,10,07,12,42,303.00
2011,10,07,12,43,284.50
2011,10,07,12,44,285.40
2011,10,07,12,45,298.30
2011,10,07,12,46,297.00
2011,10,07,12,47,297.00
2011,10,07,12,48,297.00
2011,10,07,12,49,297.00
2011,10,07,12,50,297.00
2011,10,07,12,51,297.00
2011,10,07,12,52,297.00
2011,10,07,12,53,310.00
2011,10,07,12,54,337.10
2011,10,07,12,55,343.00
2011,10,07,12,56,449.40
2011,10,07,12,57,651.90
2011,10,07,12,58,661.00
2011,10,07,12,59,516.50
2011,10,07,13,00,248.00
2011,10,07,13,01,314.50
2011,10,07,13,02,438.00
2011,10,07,13,03,438.00
2011,10,07,13,04,519.50
2011,10,07,13,05,687.90
2011,10,07,13,06,717.00
2011,10,07,13,07,717.00
2011,10,07,13,08,717.00
2011,10,07,13,09,579.80
2011,10,07,13,10,325.00
2011,10,07,13,11,443.60
2011,10,07,13,12,664.00
2011,10,07,13,13,664.00
2011,10,07,13,14,489.40
2011,10,07,13,15,159.40
2011,10,07,13,16,148.60
2011,10,07,13,17,140.60
2011,10,07,13,18,123.80
2011,10,07,13,19,138.30
2011,10,07,13,20,176.00
2011,10,07,13,21,176.00
2011,10,07,13,22,320.50
2011,10,07,13,23,592.50
2011,10,07,13,24,596.20
2011,10,07,13,25,591.00
2011,10,07,13,26,591.00
2011,10,07,13,27,588.50
2011,10,07,13,28,582.60
2011,10,07,13,29,579.00
2011,10,07,13,30,574.50
2011,10,07,13,31,571.80
2011,10,07,13,32,575.00
2011,10,07,13,33,582.30
2011,10,07,13,34,595.30
2011,10,07,13,35,590.80
2011,10,07,13,36,571.00
2011,10,07,13,37,557.20
2011,10,07,13,38,579.30
2011,10,07,13,39,580.50
2011,10,07,13,40,587.10
2011,10,07,13,41,593.50
2011,10,07,13,42,602.90
2011,10,07,13,43,617.60
2011,10,07,13,44,630.50
2011,10,07,13,45,631.20
2011,10,07,13,46,636.20
2011,10,07,13,47,659.00
2011,10,07,13,48,656.50
2011,10,07,13,49,649.50
2011,10,07,13,50,642.50
2011,10,07,13,51,636.20
2011,10,07,13,52,631.60
2011,10,07,13,53,627.20
2011,10,07,13,54,625.40
2011,10,07,13,55,628.30
2011,10,07,13,56,631.10
2011,10,07,13,57,631.80
2011,10,07,13,58,623.50
2011,10,07,13,59,619.00
2011,10,07,14,00,619.70
2011,10,07,14,01,628.70
2011,10,07,14,02,655.00
2011,10,07,14,03,681.80
2011,10,07,14,04,687.00
2011,10,07,14,05,687.00
2011,10,07,14,06,687.00
2011,10,07,14,07,687.00
2011,10,07,14,08,540.70
2011,10,07,14,09,307.80
2011,10,07,14,10,393.60
2011,10,07,14,11,441.00
2011,10,07,14,12,387.10
2011,10,07,14,13,289.50
2011,10,07,14,14,300.00
2011,10,07,14,15,315.80
2011,10,07,14,16,325.20
2011,10,07,14,17,327.60
2011,10,07,14,18,325.70
2011,10,07,14,19,332.60
2011,10,07,14,20,343.00
2011,10,07,14,21,343.00
2011,10,07,14,22,354.50
2011,10,07,14,23,356.40
2011,10,07,14,24,310.90
2011,10,07,14,25,293.30
2011,10,07,14,26,299.40
2011,10,07,14,27,309.10
2011,10,07,14,28,314.60
2011,10,07,14,29,368.50
2011,10,07,14,30,425.00
2011,10,07,14,31,371.50
2011,10,07,14,32,270.20
2011,10,07,14,33,262.80
2011,10,07,14,34,250.80
2011,10,07,14,35,242.30
2011,10,07,14,36,236.60
2011,10,07,14,37,228.20
2011,10,07,14,38,224.30
2011,10,07,14,39,223.00
2011,10,07,14,40,223.00
2011,10,07,14,41,222.30
2011,10,07,14,42,220.60
2011,10,07,14,43,219.30
2011,10,07,14,44,214.90
2011,10,07,14,45,205.90
2011,10,07,14,46,203.90
2011,10,07,14,47,207.90
2011,10,07,14,48,199.60
2011,10,07,14,49,193.90
2011,10,07,14,50,191.30
2011,10,07,14,51,189.30
2011,10,07,14,52,188.70
2011,10,07,14,53,191.20
2011,10,07,14,54,193.00
2011,10,07,14,55,191.90
2011,10,07,14,56,188.60
2011,10,07,14,57,186.00
2011,10,07,14,58,182.50
2011,10,07,14,59,174.20
2011,10,07,15,00,169.60
2011,10,07,15,01,165.20
2011,10,07,15,02,161.30
2011,10,07,15,03,159.30
2011,10,07,15,04,157.30
2011,10,07,15,05,154.90
2011,10,07,15,06,152.30
2011,10,07,15,07,150.30
2011,10,07,15,08,149.70
2011,10,07,15,09,152.40
2011,10,07,15,10,156.10
2011,10,07,15,11,159.40
2011,10,07,15,12,163.10
2011,10,07,15,13,165.00
2011,10,07,15,14,164.30
2011,10,07,15,15,162.60
2011,10,07,15,16,162.40
2011,10,07,15,17,164.40
2011,10,07,15,18,170.10
2011,10,07,15,19,179.50
2011,10,07,15,20,189.90
2011,10,07,15,21,200.50
2011,10,07,15,22,210.30
2011,10,07,15,23,219.10
2011,10,07,15,24,227.40
2011,10,07,15,25,235.10
2011,10,07,15,26,247.40
2011,10,07,15,27,257.00
2011,10,07,15,28,253.90
2011,10,07,15,29,246.20
2011,10,07,15,30,250.70
2011,10,07,15,31,259.00
2011,10,07,15,32,256.00
2011,10,07,15,33,254.10
2011,10,07,15,34,223.60
2011,10,07,15,35,221.00
2011,10,07,15,36,221.00
2011,10,07,15,37,212.20
2011,10,07,15,38,192.80
2011,10,07,15,39,183.60
2011,10,07,15,40,181.70
2011,10,07,15,41,195.90
2011,10,07,15,42,208.90
2011,10,07,15,43,190.00
2011,10,07,15,44,188.20
2011,10,07,15,45,185.00
2011,10,07,15,46,187.80
2011,10,07,15,47,202.80
2011,10,07,15,48,221.00
2011,10,07,15,49,221.00
2011,10,07,15,50,229.80
2011,10,07,15,51,232.40
2011,10,07,15,52,209.10
2011,10,07,15,53,213.00
2011,10,07,15,54,213.00
2011,10,07,15,55,196.20
2011,10,07,15,56,165.00
2011,10,07,15,57,162.60
2011,10,07,15,58,158.70
2011,10,07,15,59,158.20
2011,10,07,16,00,155.00
2011,10,07,16,01,143.10
2011,10,07,16,02,118.20
2011,10,07,16,03,112.30
2011,10,07,16,04,111.00
2011,10,07,16,05,112.80
2011,10,07,16,06,118.70
2011,10,07,16,07,125.60
2011,10,07,16,08,132.40
2011,10,07,16,09,138.40
2011,10,07,16,10,141.40
2011,10,07,16,11,142.70
2011,10,07,16,12,146.20
2011,10,07,16,13,152.40
2011,10,07,16,14,155.90
2011,10,07,16,15,159.40
2011,10,07,16,16,162.00
2011,10,07,16,17,162.00
2011,10,07,16,18,174.20
2011,10,07,16,19,187.90
2011,10,07,16,20,163.30
2011,10,07,16,21,146.60
2011,10,07,16,22,139.20
2011,10,07,16,23,132.50
2011,10,07,16,24,130.00
2011,10,07,16,25,131.30
2011,10,07,16,26,135.10
2011,10,07,16,27,137.00
2011,10,07,16,28,136.30
2011,10,07,16,29,135.00
2011,10,07,16,30,136.40
2011,10,07,16,31,140.80
2011,10,07,16,32,145.80
2011,10,07,16,33,150.40
2011,10,07,16,34,153.00
2011,10,07,16,35,151.20
2011,10,07,16,36,145.90
2011,10,07,16,37,139.20
2011,10,07,16,38,131.40
2011,10,07,16,39,124.60
2011,10,07,16,40,117.90
2011,10,07,16,41,112.90
2011,10,07,16,42,109.60
2011,10,07,16,43,107.00
2011,10,07,16,44,107.00
2011,10,07,16,45,107.70
2011,10,07,16,46,110.30
2011,10,07,16,47,113.30
2011,10,07,16,48,115.40
2011,10,07,16,49,118.00
2011,10,07,16,50,117.30
2011,10,07,16,51,115.30
2011,10,07,16,52,112.90
2011,10,07,16,53,110.30
2011,10,07,16,54,107.20
2011,10,07,16,55,102.60
2011,10,07,16,56,98.20
2011,10,07,16,57,93.60
2011,10,07,16,58,89.90
2011,10,07,16,59,86.70
2011,10,07,17,00,82.90
2011,10,07,17,01,79.40
2011,10,07,17,02,74.60
2011,10,07,17,03,70.20
2011,10,07,17,04,65.40
2011,10,07,17,05,61.90
2011,10,07,17,06,57.90
2011,10,07,17,07,53.00
2011,10,07,17,08,49.60
2011,10,07,17,09,47.00
2011,10,07,17,10,44.50
2011,10,07,17,11,39.70
2011,10,07,17,12,38.30
2011,10,07,17,13,36.30
2011,10,07,17,14,35.00
2011,10,07,17,15,34.30
2011,10,07,17,16,33.00
2011,10,07,17,17,33.00
2011,10,07,17,18,33.70
2011,10,07,17,19,35.00
2011,10,07,17,20,35.80
2011,10,07,17,21,37.70
2011,10,07,17,22,39.30